Retour au catalogue

COSMOS 2251 DEB

ActifLEO
NORAD 34420·DEBRIS·🇷🇺 Russia

Lancé Jun 16, 1993 depuis Plesetsk Cosmodrome

Loading…

Prochains Passages (prochaines 24 heures)

TLE

FraisSource: Space-Track

Époque: Sep 14, 2026, 05:40 UTC

1 34420U 93036RM  26257.23679990  .00000497  00000-0  84098-4 0  9994
2 34420  74.0314 290.8226 0105646 340.1291 137.7754 14.68774088938147

Suivez COSMOS 2251 DEB en temps réel avec AllMySat

Download on the App Store